Temp
6 5 5 5 5 6 6 6 6 6 6 6 6 5 5 6 6 6 6 6 7 7 7 8 8 8 9 9 10 10 12 12 11 11 10 9 9 9 9 8 8 8 8 6 7
5 5 5 5 5 5 6 6 6 6 6 5 5 5 6 6 6 6 6 7 7 7 8 8 8 9 9 9 10 10 11 11 11 10 10 9 10 9 8 8 8 7 6 6 7
5 5 5 5 5 5 6 5 6 5 5 5 5 5 6 6 6 6 6 7 7 8 8 8 8 9 9 10 10 11 10 10 10 10 10 9 9 9 9 9 8 7 6 7 8
5 5 5 5 5 5 5 5 5 5 5 5 5 5 6 6 7 6 7 7 7 8 9 8 9 9 10 10 10 10 10 10 9 9 10 9 9 9 9 9 9 8 7 6 6
5 5 5 5 5 5 5 5 5 5 4 5 5 5 6 6 6 6 7 7 8 8 8 9 9 10 10 10 10 10 9 9 9 9 9 9 9 9 9 9 8 8 7 6 5
5 5 5 5 5 5 5 5 5 4 4 5 5 5 6 5 6 6 7 7 8 8 8 9 9 10 10 10 10 9 9 9 8 8 9 9 9 9 9 8 8 7 7 7 6
4 4 5 5 5 5 5 4 4 4 5 5 5 5 5 5 6 6 7 7 7 7 8 8 8 9 10 9 9 9 9 9 9 9 9 9 9 9 9 8 8 8 7 7 7
4 4 4 5 5 4 4 4 4 4 5 5 5 5 5 6 6 7 6 7 7 7 7 7 8 9 9 9 9 9 10 10 9 9 9 9 10 10 9 8 8 8 8 8 8
4 4 4 4 4 4 4 4 4 4 5 5 6 6 6 6 7 6 7 7 7 7 8 8 8 9 9 9 10 10 11 11 10 9 10 9 10 10 9 9 8 9 9 8 8
4 4 4 4 4 3 4 4 4 5 5 5 6 5 6 6 7 8 7 7 7 8 8 8 8 9 10 10 10 11 12 11 11 9 9 10 10 10 9 8 8 8 8 9 8
3 4 4 3 3 3 4 4 4 5 5 5 6 6 6 7 8 7 7 8 7 7 8 9 9 10 9 9 9 10 10 11 11 9 9 9 10 10 8 8 8 8 8 8 8
3 3 3 3 3 4 4 4 5 5 5 5 6 6 7 6 6 7 7 7 7 8 9 9 9 9 8 9 9 10 10 10 10 9 8 9 10 9 7 7 7 7 7 7 7
3 3 3 3 3 4 4 4 5 6 5 5 6 6 6 6 7 6 7 7 8 9 9 8 8 9 9 8 8 10 9 8 8 8 8 8 9 8 7 6 6 6 6 5 5
3 3 3 3 3 4 4 5 5 6 6 6 6 6 6 6 7 6 7 7 8 9 9 8 7 7 8 8 7 9 7 7 7 8 9 9 10 8 7 6 5 5 4 4 3
3 3 3 3 3 3 4 5 6 6 8 6 6 7 6 6 7 7 7 7 8 8 8 8 7 7 8 7 7 7 7 7 7 8 9 10 10 9 7 6 5 4 3 2 2
3 3 3 3 3 4 4 5 6 6 7 6 6 6 6 6 6 6 7 7 7 8 8 7 7 6 6 6 6 7 7 8 7 8 9 9 10 8 8 7 5 3 2 2 1
3 3 3 3 3 4 5 5 5 7 7 7 7 7 7 6 7 7 7 7 8 8 8 7 7 6 6 7 7 7 7 8 7 8 8 8 9 7 6 6 5 3 2 2 1
2 3 3 3 4 4 5 4 6 8 8 7 7 7 7 6 6 7 7 7 6 7 8 8 7 6 6 6 6 7 7 7 6 6 7 8 9 6 5 5 5 3 2 1 0
2 3 3 4 4 4 5 5 7 7 7 7 7 7 7 6 6 7 7 6 5 6 7 8 7 6 6 5 5 6 6 5 6 5 5 8 7 5 4 3 3 2 2 1 0
3 3 3 3 4 4 4 5 6 6 7 7 7 8 7 7 7 7 6 5 5 6 6 6 7 5 5 5 5 5 5 6 6 5 6 8 8 5 4 3 3 3 2 1 0
3 2 3 4 4 4 4 5 5 6 6 7 7 7 8 7 7 7 6 5 4 6 5 5 6 6 5 5 5 5 6 5 6 5 5 5 6 5 4 4 3 2 2 1 -0
2 2 3 4 4 4 5 5 5 5 6 6 6 7 7 6 6 6 5 5 5 5 4 5 4 5 6 5 5 4 4 4 4 4 4 3 3 4 3 2 2 1 1 -0 -1
3 2 3 4 3 4 4 4 5 4 5 5 5 5 5 6 5 5 4 5 5 5 4 5 4 5 5 4 4 4 4 4 3 2 2 2 3 4 3 2 1 -1 -0 -1 -1
2 2 3 3 3 4 4 4 4 4 4 4 5 4 5 5 5 4 4 5 5 5 5 5 4 4 4 5 4 4 4 4 4 3 2 2 2 3 3 1 -0 -0 -1 -1 -2
2 3 3 3 3 4 4 5 4 4 4 4 4 5 5 4 4 4 3 5 4 5 5 4 3 3 3 3 3 3 3 3 3 3 3 3 3 3 1 1 0 -1 -1 -0 -1
2 2 3 3 4 4 4 5 5 5 4 4 4 4 4 4 4 4 4 3 3 4 2 3 2 3 4 3 2 3 2 2 2 3 3 2 2 2 1 0 -0 -0 -1 -1 -2
2 3 3 4 3 4 4 4 5 4 4 4 4 4 4 3 3 4 3 3 3 2 2 2 3 2 2 2 2 2 2 2 2 2 2 1 1 1 -0 -1 -1 -1 -1 -2 -3
Height
3109 3109 3109 3111 3112 3113 3115 3117 3118 3121 3123 3125 3126 3128 3131 3132 3133 3134 3133 3134 3135 3137 3138 3140 3140 3143 3145 3145 3148 3146 3150 3148 3152 3153 3155 3160 3161 3161 3161 3162 3164 3165 3164 3163 3165
3105 3105 3106 3107 3108 3109 3111 3114 3116 3119 3121 3123 3125 3128 3130 3133 3134 3133 3135 3135 3137 3138 3140 3142 3143 3145 3148 3150 3150 3149 3148 3146 3151 3155 3156 3160 3162 3161 3162 3163 3165 3167 3167 3165 3166
3101 3101 3102 3103 3105 3107 3109 3112 3115 3117 3120 3122 3125 3128 3131 3133 3135 3135 3135 3136 3138 3139 3140 3141 3147 3148 3150 3152 3152 3152 3148 3149 3151 3157 3158 3162 3161 3161 3163 3164 3165 3166 3166 3165 3165
3096 3097 3098 3100 3102 3105 3107 3111 3114 3116 3119 3122 3125 3129 3131 3134 3139 3136 3136 3138 3140 3141 3143 3146 3147 3148 3153 3154 3152 3152 3153 3152 3153 3158 3160 3161 3161 3162 3165 3165 3167 3168 3168 3166 3166
3093 3094 3096 3098 3100 3103 3106 3110 3113 3116 3119 3123 3126 3130 3132 3135 3138 3136 3137 3140 3142 3144 3145 3149 3150 3152 3152 3152 3151 3152 3153 3153 3157 3158 3160 3159 3161 3163 3164 3165 3168 3170 3169 3168 3168
3091 3092 3094 3096 3099 3103 3107 3110 3113 3117 3120 3124 3127 3130 3133 3135 3136 3137 3138 3140 3144 3146 3148 3148 3149 3150 3150 3151 3152 3153 3155 3156 3157 3158 3157 3159 3161 3162 3165 3165 3167 3170 3169 3170 3171
3089 3091 3093 3096 3099 3103 3107 3111 3115 3118 3122 3125 3128 3132 3134 3137 3137 3138 3141 3140 3141 3143 3146 3147 3149 3150 3151 3151 3153 3154 3157 3157 3157 3157 3158 3159 3163 3162 3162 3165 3167 3167 3169 3170 3171
3089 3090 3093 3096 3101 3104 3109 3113 3116 3120 3123 3126 3130 3133 3134 3134 3134 3138 3139 3143 3143 3144 3144 3145 3148 3149 3152 3152 3154 3155 3156 3155 3155 3157 3159 3160 3158 3161 3161 3163 3166 3166 3169 3170 3172
3089 3091 3094 3098 3102 3107 3111 3115 3118 3121 3124 3128 3132 3135 3137 3136 3137 3138 3139 3144 3143 3144 3145 3147 3148 3152 3151 3151 3152 3152 3151 3152 3155 3157 3158 3159 3158 3159 3161 3161 3164 3165 3167 3168 3170
3090 3093 3096 3100 3105 3109 3113 3117 3120 3123 3126 3131 3133 3136 3136 3138 3136 3137 3140 3141 3144 3145 3147 3148 3149 3150 3150 3151 3153 3152 3150 3151 3154 3155 3156 3158 3159 3161 3158 3159 3160 3163 3164 3167 3167
3092 3096 3099 3103 3108 3112 3115 3119 3125 3128 3127 3133 3135 3135 3135 3136 3137 3139 3140 3142 3144 3147 3148 3149 3150 3150 3150 3150 3152 3152 3151 3152 3153 3153 3155 3156 3157 3155 3154 3158 3158 3160 3161 3164 3160
3095 3099 3102 3107 3110 3114 3117 3119 3126 3129 3131 3131 3132 3133 3134 3136 3140 3140 3142 3145 3147 3148 3150 3151 3150 3149 3150 3150 3152 3152 3152 3153 3153 3154 3154 3154 3155 3152 3155 3158 3158 3158 3161 3158 3155
3099 3102 3106 3109 3113 3116 3118 3120 3125 3128 3132 3134 3135 3135 3135 3138 3140 3141 3142 3145 3147 3148 3149 3149 3148 3148 3150 3152 3152 3152 3153 3152 3154 3153 3153 3153 3153 3152 3156 3157 3156 3155 3157 3156 3154
3101 3105 3108 3112 3117 3118 3121 3123 3127 3129 3133 3136 3136 3137 3137 3138 3139 3139 3141 3145 3146 3148 3148 3149 3149 3150 3151 3152 3151 3152 3151 3151 3152 3152 3149 3149 3150 3150 3154 3157 3156 3155 3155 3155 3154
3102 3106 3110 3114 3114 3120 3122 3125 3128 3130 3132 3136 3136 3135 3136 3140 3140 3140 3141 3144 3146 3147 3149 3150 3150 3151 3151 3150 3150 3152 3149 3149 3149 3149 3149 3147 3148 3146 3150 3155 3156 3154 3153 3153 3152
3104 3107 3111 3114 3117 3118 3122 3126 3129 3132 3131 3134 3135 3137 3138 3139 3139 3140 3141 3143 3144 3147 3148 3148 3148 3149 3149 3149 3149 3149 3149 3148 3147 3147 3146 3143 3143 3149 3150 3152 3154 3153 3151 3151 3150
3104 3107 3111 3114 3116 3120 3124 3128 3132 3130 3132 3134 3135 3137 3138 3139 3141 3142 3143 3145 3146 3148 3148 3149 3150 3149 3149 3149 3150 3150 3149 3146 3149 3143 3144 3143 3143 3145 3149 3151 3151 3150 3148 3149 3149
3104 3108 3111 3114 3117 3121 3125 3130 3131 3129 3131 3132 3134 3137 3139 3140 3141 3142 3143 3144 3144 3145 3146 3147 3151 3151 3150 3150 3150 3151 3150 3151 3150 3148 3147 3145 3142 3145 3147 3147 3147 3147 3147 3148 3148
3104 3107 3110 3114 3117 3121 3126 3129 3128 3130 3131 3133 3136 3137 3139 3140 3142 3143 3143 3144 3143 3144 3146 3147 3149 3149 3150 3149 3151 3151 3151 3152 3151 3151 3149 3144 3144 3146 3146 3147 3147 3147 3148 3147 3146
3103 3108 3111 3114 3118 3122 3125 3127 3129 3128 3131 3134 3135 3136 3137 3140 3142 3142 3144 3145 3144 3144 3145 3147 3149 3151 3151 3149 3151 3152 3152 3153 3152 3153 3149 3142 3143 3144 3147 3147 3147 3148 3146 3144 3143
3103 3107 3110 3114 3118 3122 3124 3127 3127 3127 3131 3135 3135 3136 3137 3139 3141 3142 3144 3144 3144 3144 3145 3146 3149 3153 3151 3152 3152 3152 3152 3152 3152 3152 3152 3150 3148 3148 3148 3148 3147 3145 3144 3140 3137
3104 3108 3111 3114 3119 3121 3124 3126 3126 3125 3128 3131 3133 3136 3137 3139 3141 3142 3143 3142 3143 3144 3146 3146 3148 3150 3152 3150 3150 3151 3151 3152 3151 3152 3151 3150 3148 3146 3145 3144 3143 3141 3139 3137 3134
3105 3107 3109 3113 3118 3120 3122 3123 3126 3127 3130 3132 3133 3135 3137 3139 3141 3141 3140 3141 3142 3143 3144 3146 3148 3149 3150 3152 3150 3150 3151 3150 3149 3149 3149 3150 3146 3145 3143 3140 3141 3139 3137 3134 3129
3105 3106 3108 3111 3114 3118 3121 3122 3123 3125 3127 3130 3132 3133 3136 3138 3139 3140 3139 3141 3141 3142 3144 3145 3148 3149 3150 3150 3150 3149 3148 3147 3147 3144 3144 3145 3144 3142 3141 3137 3137 3135 3132 3129 3125
3102 3104 3106 3108 3112 3117 3120 3122 3124 3124 3127 3129 3131 3134 3136 3137 3139 3140 3140 3139 3140 3142 3143 3144 3145 3147 3146 3146 3146 3145 3144 3142 3141 3140 3140 3140 3139 3139 3136 3135 3132 3127 3124 3122 3120
3101 3103 3106 3109 3112 3116 3118 3121 3123 3126 3126 3128 3131 3133 3135 3136 3138 3139 3140 3141 3141 3141 3141 3141 3143 3142 3142 3143 3143 3140 3136 3135 3136 3135 3135 3135 3135 3135 3134 3128 3126 3122 3119 3116 3112
3099 3102 3104 3107 3110 3114 3116 3120 3123 3122 3125 3127 3130 3132 3132 3132 3133 3134 3135 3137 3138 3140 3140 3140 3140 3140 3139 3139 3136 3135 3134 3134 3134 3134 3134 3133 3133 3132 3126 3121 3118 3116 3114 3109 3103
Wind_Speed
24 22 21 19 18 17 17 16 15 14 13 12 11 11 8 6 6 7 1 5 14 13 11 11 13 16 19 8 3 5 2 11 9 11 10 8 6 7 6 3 3 6 4 12 10
23 20 19 18 18 18 17 15 14 13 12 11 12 11 9 11 9 4 6 12 14 11 10 11 12 13 8 3 5 5 11 14 10 8 7 6 5 3 8 4 5 6 8 11 11
20 18 16 17 17 17 17 15 13 13 12 13 13 13 15 15 8 4 8 17 12 8 11 10 6 10 6 6 5 5 12 9 10 4 5 8 3 6 5 4 5 7 12 8 7
17 15 14 16 16 16 16 15 14 13 14 15 15 15 20 10 6 4 16 14 11 11 14 5 10 7 7 9 6 1 5 6 7 13 7 5 5 5 4 11 8 8 11 10 6
14 13 14 15 15 15 16 14 14 15 16 17 17 19 17 10 3 10 17 12 10 12 9 4 7 6 8 6 5 3 6 7 8 12 6 6 4 3 5 7 9 8 9 9 8
12 12 13 14 15 15 15 16 16 16 16 17 18 19 11 4 9 6 17 14 5 1 2 5 1 2 5 9 7 7 8 8 7 6 4 10 4 9 8 6 8 9 6 5 6
10 11 12 14 14 16 17 18 17 16 16 16 18 19 5 0 7 7 11 9 6 8 3 7 6 4 5 4 5 8 7 6 5 3 1 4 9 8 10 8 9 8 7 8 7
11 12 14 15 17 18 19 19 16 15 13 14 15 14 3 7 11 15 6 4 4 6 4 5 13 4 1 5 6 7 7 9 8 7 7 8 9 13 10 6 7 7 9 10 12
13 14 17 19 20 21 21 18 15 14 14 14 13 7 1 2 8 8 12 5 6 6 9 10 10 3 4 6 7 8 10 8 8 6 4 7 3 12 7 6 9 10 12 11 11
16 19 21 23 25 23 20 17 15 15 14 13 13 1 3 6 9 10 10 10 5 8 7 6 3 5 5 9 2 10 6 2 2 5 3 7 9 4 6 8 10 12 11 15 9
19 22 26 27 25 23 20 18 16 17 17 2 8 2 2 7 11 9 12 10 8 4 5 3 6 1 6 3 5 6 4 3 5 2 5 9 10 6 6 3 2 5 10 11 15
22 25 27 27 25 24 24 13 14 12 6 10 12 10 9 11 5 7 12 8 5 7 4 4 4 4 2 5 4 3 3 4 2 5 4 4 8 6 1 4 5 6 11 15 21
24 26 27 25 24 25 15 10 15 16 8 9 9 4 11 8 9 6 11 4 7 6 5 1 5 3 2 2 3 4 3 3 4 9 12 11 10 9 6 8 14 17 14 9 13
23 26 26 23 20 21 14 20 15 18 8 6 4 1 6 6 2 5 10 9 5 4 6 3 1 3 1 1 4 6 1 6 9 10 13 16 6 13 13 10 10 11 10 7 6
21 25 25 22 21 15 17 22 19 9 4 9 7 10 7 3 4 1 8 7 3 5 4 4 2 2 2 3 4 5 11 10 8 10 11 15 11 21 17 12 11 10 8 5 9
23 25 25 21 20 22 22 25 10 1 4 7 5 8 7 3 4 5 6 10 9 4 3 4 2 1 2 5 6 5 8 10 9 9 8 14 6 10 13 13 10 7 6 5 4
22 22 23 22 23 19 21 18 2 4 7 6 12 10 6 7 6 6 6 6 2 5 5 4 2 4 4 6 2 7 8 7 3 6 2 1 3 9 13 12 12 9 3 3 4
21 22 23 21 22 20 19 11 6 2 6 9 12 11 8 7 5 8 7 6 3 2 4 9 7 1 5 3 3 4 4 3 4 4 8 5 4 12 12 11 9 4 2 2 3
21 22 22 21 20 19 20 10 1 2 7 10 13 11 7 5 6 7 6 3 2 8 3 2 5 1 3 3 5 5 4 3 4 4 4 7 6 12 11 9 7 1 2 4 8
20 21 21 19 21 19 16 10 4 6 7 12 10 7 7 7 7 7 4 3 1 7 7 2 4 2 4 6 6 8 3 4 2 2 3 9 8 9 10 6 4 3 7 8 7
21 19 19 21 21 21 9 8 7 11 10 12 7 7 5 9 5 6 4 4 5 3 5 5 3 2 4 3 5 4 3 4 5 3 2 3 4 5 2 3 7 6 11 13 11
19 9 11 21 20 19 9 9 8 9 16 14 7 7 8 7 6 5 8 6 5 6 3 3 4 2 3 3 3 3 3 4 2 5 3 4 12 7 4 4 7 10 11 9 17
18 7 11 21 13 18 12 8 8 9 9 6 6 8 8 8 5 8 8 7 6 5 7 6 2 2 7 0 4 5 3 5 5 8 12 8 8 7 13 13 10 8 10 11 14
9 7 18 26 9 17 10 9 12 15 15 8 7 7 9 8 5 8 6 7 6 4 4 3 2 1 1 5 9 10 11 12 14 15 15 18 19 18 18 16 9 12 11 13 20
9 7 18 27 12 11 13 9 10 16 10 9 6 6 8 7 6 7 7 5 5 4 4 3 2 3 6 9 9 11 14 14 16 18 20 21 21 17 17 10 12 14 21 25 30
8 5 15 6 17 11 14 12 12 9 8 11 7 9 9 7 5 8 6 4 2 4 3 4 4 9 12 3 9 19 20 14 13 16 16 13 15 13 15 15 20 26 27 36 42
15 12 14 13 15 15 15 10 13 14 13 9 9 13 13 14 15 17 14 12 8 2 3 6 5 8 5 12 21 4 2 5 8 8 10 12 14 13 15 17 21 29 35 39 36
Wind_Direction
277 273 266 256 247 240 236 237 234 230 227 221 212 206 199 173 137 95 184 214 155 150 145 153 156 155 164 144 200 301 240 149 154 162 144 166 171 177 188 138 113 104 282 195 175
278 270 260 248 238 233 232 232 225 220 214 201 190 182 165 131 96 63 277 162 153 152 150 146 144 156 144 251 265 308 313 126 112 84 143 154 192 155 126 129 161 155 147 219 191
272 260 245 235 231 226 225 221 217 211 197 184 175 165 140 113 87 197 211 156 154 141 149 113 175 133 207 215 230 355 103 121 155 109 152 163 135 128 157 169 180 179 185 216 193
263 249 232 223 220 217 215 208 204 195 182 173 168 154 138 123 77 241 164 155 143 117 132 118 141 164 187 201 218 80 75 97 135 165 131 136 158 129 116 139 148 222 185 220 201
253 235 216 211 209 205 202 196 187 181 171 169 165 151 131 99 95 154 166 146 147 119 90 197 223 194 202 191 180 153 123 136 148 157 155 174 137 131 166 220 170 179 181 212 198
238 220 205 200 198 192 185 178 172 168 165 168 163 153 143 11 261 147 168 146 142 168 210 159 200 189 150 151 161 150 136 138 136 153 179 137 219 153 178 202 173 184 181 206 226
213 197 190 183 178 173 169 163 161 159 166 165 159 150 132 296 185 178 159 169 152 159 142 219 149 146 137 154 132 156 160 169 165 174 232 168 215 218 198 177 207 216 201 219 226
184 177 174 166 164 157 155 152 151 156 155 159 157 155 59 258 182 167 185 203 206 172 186 157 150 133 191 174 163 182 207 192 167 187 223 234 247 196 197 202 210 229 233 220 226
167 166 162 155 150 149 144 144 147 147 148 144 141 137 258 170 151 208 163 172 210 158 138 136 115 160 170 165 186 198 222 172 162 176 209 242 297 179 191 222 237 229 243 229 217
158 156 150 148 148 141 140 138 141 137 135 139 146 207 287 187 201 184 183 156 125 145 108 116 139 160 183 219 298 311 197 158 146 162 210 243 248 192 218 269 259 257 246 236 224
152 150 149 145 144 141 136 127 127 134 121 61 182 149 143 163 158 146 166 163 137 161 197 247 252 258 61 28 9 358 20 318 160 234 284 238 240 243 287 357 321 204 194 194 206
150 152 148 150 147 143 131 117 169 153 162 155 169 190 176 141 138 155 142 121 169 206 205 229 221 234 345 327 355 332 346 298 296 288 265 259 256 203 106 137 150 158 146 187 208
155 153 154 153 154 149 145 143 164 145 128 134 147 144 148 121 158 198 146 203 208 233 218 88 135 283 148 346 337 260 270 340 292 294 271 261 241 186 147 147 151 136 149 179 226
159 160 159 159 159 159 142 148 148 127 129 150 144 168 141 138 274 179 162 158 167 186 177 140 167 96 70 315 350 309 250 295 298 287 280 193 310 161 163 148 130 127 143 139 169
163 167 167 165 163 165 160 149 148 146 161 156 196 204 191 135 177 244 177 131 189 207 131 140 111 63 306 271 312 322 292 294 282 275 276 239 239 179 171 170 153 144 144 157 196
171 173 174 173 177 165 163 157 141 25 154 171 162 135 143 149 143 161 161 153 145 111 111 146 161 135 308 320 342 328 324 296 276 256 261 259 214 127 193 169 163 167 153 180 221
175 178 183 181 177 168 168 165 172 279 149 175 161 152 138 125 113 138 131 133 256 159 167 122 76 340 21 340 326 350 327 288 255 199 246 360 257 125 165 158 172 185 224 258 258
181 184 186 187 175 170 168 152 241 95 144 151 160 154 153 132 137 135 119 93 89 129 200 195 154 26 357 62 328 347 345 31 318 354 339 225 295 137 165 209 210 203 110 65 332
188 189 186 182 177 173 163 198 219 211 186 163 160 169 177 183 143 140 128 105 95 148 64 240 102 57 353 27 30 357 38 324 293 303 313 265 123 138 141 135 132 111 75 307 320
192 192 191 181 178 172 173 196 223 159 163 173 173 193 187 185 162 182 189 142 56 142 118 160 132 126 328 50 10 34 335 350 3 308 300 339 354 113 181 196 237 200 284 299 298
191 185 191 184 180 178 199 216 229 207 157 187 221 201 189 173 186 169 173 156 119 141 80 108 98 110 41 47 12 352 358 327 291 297 308 323 63 50 59 239 238 269 311 311 305
174 161 205 190 182 182 201 216 204 205 178 181 160 184 176 175 165 155 153 196 178 121 140 104 97 132 91 355 22 349 322 308 290 293 251 242 268 285 283 304 290 298 297 293 305
155 234 215 187 182 191 208 195 164 178 184 181 184 167 167 168 152 152 199 162 174 170 172 134 73 282 167 165 5 8 308 287 264 266 277 249 265 270 287 280 327 304 319 320 301
148 193 188 180 169 199 197 197 188 171 196 174 185 170 163 175 166 168 201 188 215 197 173 151 144 142 286 303 310 303 297 284 269 254 262 267 285 293 303 320 311 305 305 300 291
152 212 195 195 179 186 201 199 195 202 207 197 193 178 175 166 159 161 177 195 234 229 231 214 172 249 270 295 300 301 295 288 276 271 267 281 281 290 294 312 303 284 287 291 295
172 184 182 202 194 183 196 194 201 192 209 191 186 186 182 185 164 187 198 172 223 208 190 276 269 295 316 316 303 307 295 284 281 274 271 291 291 299 316 277 281 286 292 296 303
189 190 191 192 181 186 210 192 196 203 189 182 180 174 177 171 185 182 189 192 196 220 227 259 275 302 280 303 322 336 2 306 303 291 288 287 294 293 286 285 283 291 298 303 311